Flag for U.S.A. Weather past 2 weeks in Dayton, Ohio, U.S.A.

Now
50 °F

Fog.


Feels Like: 50 °F
Forecast: 46 / 69 °F
Wind: No wind

Location: Dayton / Wright-Patterson Air Force Base

Current Time: Sep 17, 2014 at 9:26:55 AM

Latest Report: Sep 17, 2014 at 8:58 AM


Visibility: 6 mi

Pressure: 30.09 "Hg

Humidity: 100%

Dew point: 50 °F

Location of DaytonLocation

Historic Weather in Dayton — Graph

°F

Dayton temperature yesterday

Maximum temperature yesterday: 61 °F (at 4:58 PM)
Minimum temperature yesterday: 49 °F (at 11:58 PM)
Average temperature yesterday: 56 °F

Past Weeks' High & Low Weather Summary

 TemperatureHumidityPressure
High89 °F (Sep 5, 2:58 PM)100% (Sep 2, 10:58 PM)30.35 "Hg (Sep 2, 10:58 PM)
Low44 °F (Sep 17, 4:58 AM)39% (Sep 9, 4:58 PM)29.74 "Hg (Sep 11, 12:58 AM)
Average66 °F79%30.10 "Hg
* Reported Sep 2 7:58 AM — Sep 17 7:58 AM, Dayton, Weather by CustomWeather, © 2014

Note: Actual official high and low records may vary slightly from our data, if they occured in-between our weather recording intervals... More about our weather records

Advertising

Dayton weather history for previous 24 hours

 ConditionsComfort  
Time TempWeatherWind HumidityBarometerVisibility
7:58 AM
Sep 17
49 °FFog.2 mph99%30.10 "Hg5 mi
6:58 AM48 °FFog.No wind94%30.09 "Hg4 mi
5:58 AM47 °FFog.2 mph99%30.09 "Hg1 mi
4:58 AM44 °FFog.No wind99%30.09 "Hg1 mi
3:58 AM46 °FFog.No wind99%30.09 "Hg0 mi
2:58 AM47 °FFog.No wind99%30.10 "Hg0 mi
1:58 AM48 °FFog.No wind99%30.11 "Hg4 mi
12:58 AM47 °FClear.2 mph97%30.12 "Hg10 mi
11:58 PM
Sep 16
49 °FFog.No wind94%30.12 "Hg6 mi
10:58 PM51 °FClear.No wind87%30.12 "Hg10 mi
9:58 PM51 °FClear.No wind87%30.12 "Hg10 mi
8:58 PM56 °FOvercast.No wind76%30.12 "Hg10 mi
7:58 PM60 °FOvercast.3 mph62%30.12 "Hg10 mi
6:58 PM60 °FOvercast.2 mph62%30.12 "Hg10 mi
5:58 PM61 °FOvercast.No wind65%30.13 "Hg10 mi
4:58 PM61 °FOvercast.2 mph66%30.13 "Hg10 mi
3:58 PM60 °FOvercast.5 mph68%30.15 "Hg10 mi
2:58 PM59 °FOvercast.1 mph69%30.16 "Hg10 mi
1:58 PM59 °FOvercast.6 mph72%30.16 "Hg10 mi
12:58 PM58 °FOvercast.7 mph75%30.18 "Hg10 mi
11:58 AM57 °FOvercast.6 mph80%30.18 "Hg10 mi
10:58 AM56 °FMostly cloudy.6 mph82%30.19 "Hg10 mi
9:58 AM55 °FOvercast.6 mph85%30.19 "Hg10 mi
Weather by CustomWeather, © 2014

See weather overviewHow to use our weather pages